#timestamp,LO_Frequency,Hit 
1616274015.4,286046998.4,N
1616274035.3,286046998.8,N
1616274055.1,286046998.6,N
1616274056.0,286046998.6,N
1616274075.8,286047001.2,N
1616274095.7,286046999.4,N
1616274115.5,286046999.0,N
1616274135.3,286046998.5,N
1616274155.1,286046998.2,N
1616274175.9,286047001.2,N
1616274195.7,286046999.4,N
1616274215.5,286046999.2,N
1616274235.4,286046999.6,N
1616274255.2,286046998.5,N
1616274275.0,286046998.4,N
1616274275.9,286046998.4,N
1616274295.8,286046998.7,N
1616274315.6,286046999.2,N
1616274335.5,286046996.6,P
1616274355.3,286046998.6,N
1616274375.1,286046998.5,N
1616274395.8,286046998.6,N
1616274415.7,286046999.5,N
1616274435.5,286046998.7,N
1616274455.3,286046998.1,N
1616274475.2,286047000.7,N
1616274495.0,286046999.1,N
1616274495.9,286046999.1,N
1616274515.8,286046996.5,P
1616274535.6,286046998.9,N
1616274555.4,286046998.6,N
1616274575.2,286046999.4,N
1616274595.1,286047000.4,N
1616274596.0,286047000.4,N
1616274615.8,286046998.9,N
1616274635.6,286046998.1,N
1616274655.5,286046998.3,N
1616274675.3,286046998.1,N
1616274695.1,286046999.3,N
1616274715.9,286047001.1,N
1616274735.7,286046998.4,N
1616274755.5,286047000.8,N
1616274775.4,286046998.9,N
1616274795.2,286046998.4,N
1616274815.0,286046999.0,N
1616274815.9,286046999.0,N
1616274835.8,286046996.5,P
1616274855.6,286046998.7,N
1616274875.4,286046998.2,N
1616274895.3,286046998.7,N
1616274915.1,286046998.7,N
1616274935.8,286046998.8,N
1616274955.7,286047000.9,N
1616274975.5,286047001.2,N
1616274995.3,286046998.7,N
1616275015.2,286047000.9,N
1616275035.9,286046998.8,N
1616275055.7,286046998.6,N
1616275075.6,286046996.5,N
1616275095.4,286046999.4,N
1616275115.2,286046998.4,N
1616275135.1,286046998.9,N
1616275136.0,286046998.9,N
1616275155.8,286046999.1,N
1616275175.6,286046999.6,N
1616275195.5,286046999.5,N
1616275215.3,286046999.0,N
1616275235.1,286046998.8,N
1616275255.9,286046997.2,N
1616275275.7,286046999.4,N
1616275295.5,286046996.5,P
1616275315.4,286046998.6,N
1616275335.2,286046999.0,N
1616275355.0,286046998.8,N
1616275355.9,286046998.8,N
1616275375.8,286046996.7,P
1616275395.6,286046998.4,N
1616275415.4,286047001.2,N
1616275435.3,286046999.7,N
1616275455.1,286047001.1,N
1616275475.8,286047000.5,N
1616275495.7,286047000.6,N
1616275515.5,286046998.7,N
1616275535.3,286047000.7,N
1616275555.2,286046998.1,N
1616275575.9,286046999.0,N
1616275595.7,286046998.9,N
1616275615.6,286046999.2,N
1616275635.4,286046999.6,N
1616275655.2,286046998.6,N
1616275675.1,286046999.5,N
1616275676.0,286046999.5,N
1616275695.8,286046999.4,N
1616275715.6,286046999.2,N
1616275735.5,286046997.0,N
1616275755.3,286046997.4,N
1616275775.1,286046997.2,N
1616275795.9,286046997.1,N
1616275815.7,286046996.7,N
1616275835.5,286046996.8,N
1616275855.3,286046999.6,N
1616275875.2,286046997.8,N
1616275895.0,286046997.9,N
1616275895.9,286046997.9,N
1616275915.7,286046996.8,N
1616275935.6,286046997.2,N
1616275955.4,286046999.6,N
1616275975.2,286046997.1,N
1616275995.1,286046998.0,N
1616275996.0,286046998.0,N
1616276015.8,286046997.9,N
1616276035.6,286046997.8,N
1616276055.5,286046997.3,N
1616276075.3,286046997.3,N
1616276095.1,286046997.8,N
1616276115.9,286046995.0,P
1616276135.7,286046997.1,N
1616276155.5,286046997.0,N
1616276175.4,286046996.7,N
1616276195.2,286046996.7,P
1616276215.1,286047000.6,P
1616276216.0,286047000.6,N
1616276235.8,286047002.8,N
1616276255.6,286047000.0,N
1616276275.5,286047001.1,N
1616276295.3,286047000.8,N
1616276315.1,286047001.1,N
1616276335.8,286047000.3,N
1616276355.7,286047000.4,N
1616276375.5,286046998.2,N
1616276395.3,286047001.1,N
1616276415.2,286047000.4,N
1616276435.0,286046998.2,N
1616276435.9,286046998.2,N
1616276455.7,286047000.8,N
1616276475.6,286047000.9,N
1616276495.4,286046998.2,N
1616276515.2,286046998.4,N
1616276535.1,286046999.0,N
1616276536.0,286046999.0,N
1616276555.8,286046998.2,N
1616276575.6,286046999.4,N
1616276595.5,286046998.9,N
1616276615.3,286047000.9,N
1616276635.1,286046998.7,N
1616276655.9,286047002.0,N
1616276675.7,286046999.9,N
1616276695.5,286047001.9,N
1616276715.4,286047001.7,N
1616276735.2,286047004.3,N
1616276755.0,286047003.0,N
1616276755.9,286047003.0,N
1616276775.8,286047003.0,N
1616276795.6,286047004.2,N
1616276815.4,286047006.0,P
1616276835.3,286047003.1,N
1616276855.1,286047003.5,N
1616276856.0,286047003.5,N
1616276875.8,286047003.5,N
1616276895.7,286047005.5,P
1616276915.5,286047002.3,N
1616276935.3,286047002.8,N
1616276955.2,286047000.9,N
1616276975.0,286047000.4,N
1616276975.9,286047000.4,N
1616276995.7,286047000.0,N
1616277015.6,286047000.5,N
1616277035.4,286046998.9,N
1616277055.2,286046998.1,N
1616277075.1,286046999.6,N
1616277076.0,286046999.6,N
1616277095.8,286046997.2,N
1616277115.6,286046997.0,N
1616277135.5,286046997.0,N
1616277155.3,286046997.2,N
1616277175.1,286046999.6,N
1616277195.9,286046996.8,N
1616277215.7,286046997.4,N
1616277235.5,286046997.4,N
1616277255.4,286046994.9,N
1616277275.2,286046995.2,N
1616277295.0,286046995.9,N
1616277295.9,286046995.9,N
1616277315.8,286046995.8,N
1616277335.6,286046996.1,N
1616277355.4,286046995.1,N
1616277375.3,286046995.9,N
1616277395.1,286046995.5,N
1616277396.0,286046995.5,N
1616277415.8,286046993.4,N
1616277435.7,286046996.4,N
1616277455.5,286046993.6,N
1616277475.3,286046993.6,P
1616277495.2,286046997.4,N
1616277515.9,286046997.1,N
1616277535.7,286046997.5,N
1616277555.6,286046997.6,N
1616277575.4,286046997.3,N
1616277595.2,286046998.0,N
